FW2270 Weather Reports


time (UTC)temp
C
wind
direction
speed
KPH
gust
KPH
rain 1hr
cm
rain 24hr
cm
rain mn
cm
humidity
%
barometer
mb
20260506105415 11 309 0.0 0.0 0.00 0.00 0.00 95 1020.7
20260506104430 11 309 0.0 1.6 0.00 0.00 0.00 95 1020.5
20260506103423 11 309 0.0 0.0 0.00 0.00 0.00 95 1020.4
20260506102417 11 309 0.0 1.6 0.00 0.00 0.00 95 1020.4
20260506101413 11 309 0.0 0.0 0.00 0.00 0.00 95 1020.3
20260506100428 11 309 0.0 0.0 0.00 0.00 0.00 95 1020.4
20260506095420 11 309 0.0 1.6 0.00 0.00 0.00 95 1020.3
20260506094417 11 309 0.0 0.0 0.00 0.00 0.00 95 1020.3
20260506093430 11 309 0.0 0.0 0.00 0.00 0.00 95 1020.3
20260506092425 11 309 0.0 1.6 0.00 0.00 0.00 95 1020.4
20260506091418 11 309 0.0 1.6 0.00 0.00 0.00 95 1020.4
20260506090417 11 309 0.0 1.6 0.00 0.00 0.00 95 1020.5
20260506085429 11 309 0.0 0.0 0.00 0.00 0.00 95 1020.5
20260506084422 11 309 0.0 0.0 0.00 0.00 0.00 95 1020.4
20260506083420 11 309 0.0 0.0 0.00 0.00 0.00 95 1020.5
20260506082433 12 309 0.0 1.6 0.00 0.00 0.00 95 1020.4
20260506081426 12 309 0.0 0.0 0.00 0.00 0.00 95 1020.4
20260506080420 11 309 0.0 0.0 0.00 0.00 0.00 95 1020.4
20260506073422 11 296 0.0 1.6 0.00 0.08 0.00 95 1020.1
20260506072421 11 265 0.0 3.2 0.00 0.08 0.00 95 1020.0
20260506071435 11 306 1.6 3.2 0.00 0.08 0.00 95 1019.8
20260506070428 11 305 0.0 1.6 0.00 0.08 0.00 95 1019.8
20260506062424 11 299 0.0 1.6 0.00 0.41 0.08 95 1019.7
20260506061417 12 299 0.0 1.6 0.00 0.41 0.08 95 1019.6
20260506060415 12 299 0.0 3.2 0.00 0.41 0.08 95 1019.6
20260506050418 12 284 0.0 1.6 0.00 0.46 0.08 95 1019.3
20260506044425 12 291 0.0 3.2 0.00 0.53 0.08 94 1019.0
20260506043418 12 277 0.0 3.2 0.00 0.53 0.08 94 1018.9
20260506042431 12 285 0.0 3.2 0.00 0.53 0.08 94 1018.9
20260506041428 12 285 0.0 3.2 0.00 0.53 0.08 94 1018.7
20260506040420 12 298 0.0 3.2 0.00 0.53 0.08 94 1018.6
20260506035431 12 291 0.0 3.2 0.00 0.64 0.08 94 1018.4
20260506034425 12 277 0.0 4.8 0.00 0.64 0.08 94 1018.4
20260506033422 12 296 0.0 3.2 0.00 0.64 0.08 94 1018.2
20260506032417 12 298 1.6 6.4 0.00 0.64 0.08 94 1018.1
20260506031430 12 272 1.6 4.8 0.00 0.64 0.08 93 1017.8
20260506030425 12 272 0.0 3.2 0.00 0.64 0.08 92 1017.7
20260506025422 12 293 0.0 4.8 0.00 0.81 0.08 91 1017.7
20260506024436 13 319 0.0 6.4 0.00 0.81 0.08 92 1017.7
20260506023429 13 266 0.0 8.0 0.00 0.81 0.08 91 1017.5
20260506022424 13 298 1.6 6.4 0.00 0.81 0.08 89 1017.5
20260506021421 14 301 0.0 9.7 0.00 0.81 0.08 87 1017.4
20260506020414 14 272 1.6 8.0 0.00 0.81 0.08 89 1017.1
20260506015446 13 302 3.2 9.7 0.00 1.02 0.08 90 1017.1
20260506014423 13 305 1.6 8.0 0.00 1.02 0.08 89 1017.0
20260506013417 13 308 1.6 11.3 0.00 1.02 0.08 88 1017.0
20260506012432 13 322 4.8 11.3 0.00 1.02 0.08 87 1016.9
20260506011445 13 268 6.4 14.5 0.00 1.02 0.08 85 1016.9
20260506010423 14 318 9.7 16.1 0.00 1.02 0.08 84 1016.9
20260506005415 14 308 8.0 16.1 0.00 1.22 0.08 84 1016.9
20260506004448 15 316 6.4 14.5 0.00 1.22 0.08 83 1016.8
20260506003441 15 312 4.8 12.9 0.00 1.22 0.08 84 1016.7
20260506002419 15 272 8.0 12.9 0.00 1.22 0.08 83 1016.7
20260506001433 15 282 1.6 22.5 0.00 1.22 0.08 82 1016.7
20260506000427 15 297 8.0 20.9 0.00 1.22 0.08 83 1016.6
20260505235438 15 323 8.0 19.3 0.00 1.35 0.08 82 1016.6
20260505234416 16 300 3.2 22.5 0.00 1.35 0.08 84 1016.6
20260505233431 16 319 3.2 12.9 0.00 1.35 0.08 81 1016.7
20260505232424 16 319 6.4 17.7 0.00 1.35 0.08 79 1016.6
20260505231422 16 330 11.3 19.3 0.00 1.35 0.08 79 1016.7
20260505230436 16 251 4.8 16.1 0.00 1.35 0.08 81 1016.5
20260505225428 16 268 6.4 16.1 0.00 1.37 0.08 79 1016.5
20260505224421 16 310 6.4 19.3 0.00 1.37 0.08 81 1016.6
20260505223420 17 296 3.2 16.1 0.00 1.37 0.08 79 1016.7
20260505222433 17 262 4.8 24.1 0.00 1.37 0.08 81 1016.6
20260505221425 17 322 12.9 19.3 0.00 1.37 0.08 78 1016.5
20260505220419 17 307 1.6 14.5 0.00 1.37 0.08 80 1016.6
20260505215437 17 314 8.0 16.1 0.00 1.37 0.08 81 1016.7
20260505214430 16 272 4.8 16.1 0.00 1.37 0.08 81 1016.9
20260505213424 16 326 8.0 17.7 0.00 1.37 0.08 81 1017.0
20260505212417 16 324 9.7 16.1 0.00 1.37 0.08 83 1017.1
20260505211415 16 325 9.7 17.7 0.00 1.37 0.08 82 1017.1
20260505210450 16 327 6.4 14.5 0.00 1.37 0.08 82 1017.1
20260505205422 16 309 4.8 12.9 0.00 1.37 0.08 81 1017.2
20260505204418 16 301 3.2 12.9 0.00 1.37 0.08 83 1017.2
20260505203431 16 274 4.8 14.5 0.00 1.37 0.08 83 1017.1
20260505202425 16 309 4.8 12.9 0.00 1.37 0.08 83 1017.2
20260505201417 16 326 3.2 14.5 0.00 1.37 0.08 83 1017.2
20260505200415 16 292 6.4 17.7 0.00 1.37 0.08 85 1017.3
20260505195426 16 296 8.0 19.3 0.00 1.37 0.08 84 1017.3
20260505194419 16 298 6.4 14.5 0.00 1.37 0.08 85 1017.2
20260505193434 16 320 4.8 12.9 0.00 1.37 0.08 86 1017.2
20260505192432 15 296 4.8 17.7 0.00 1.37 0.08 85 1017.3
20260505191425 15 316 8.0 16.1 0.00 1.37 0.08 86 1017.3
20260505190439 15 298 8.0 14.5 0.00 1.37 0.08 85 1017.3
20260505185430 15 337 9.7 22.5 0.00 1.37 0.08 86 1017.2
20260505184428 15 336 6.4 12.9 0.00 1.37 0.08 86 1017.3
20260505183423 15 337 8.0 17.7 0.00 1.37 0.08 85 1017.2
20260505182416 15 308 6.4 16.1 0.00 1.37 0.08 84 1017.2
20260505181448 14 331 8.0 17.7 0.00 1.37 0.08 84 1017.1